Latest Coastal Weather Observations for Flinders Reef

IDQ60701

Issued at 2:02 pm EST Saturday 19 January 2019 (issued every 10 minutes, with the page automatically refreshed every 10 minutes)

About coastal observations | Map of coastal stations | Coastal observations for QLD | Marine services | Other Formats
Station Details ID: 200783 Name: FLINDERS REEF Lat: -17.72 Lon: 148.45 Height: 2.6 m
Data from the previous 72 hours. | See also: Recent months at Flinders Reef
Date/Time
EST
Wind Sea
Height
m
Swell Vis
km
Cloud Weather Temp
°C
Press
hPa
Rain since
9am
mm
Dir  Spd
kts
Gust
kts
Height
m
Period
s
Dir
19/02:00pm SE 15 18 - - - - - - - 27.5 1010.7 -
19/01:30pm ESE 14 16 - - - - - - - 28.0 1011.0 -
19/01:24pm ESE 15 - - - - - - - - 27.8 1010.9 -
19/01:00pm ESE 16 18 - - - - - - - 27.5 1011.2 -
19/12:30pm SE 16 19 - - - - - - - 27.7 1011.5 -
19/12:24pm ESE 16 - - - - - - - - 27.7 1011.5 -
19/12:00pm ESE 15 18 - - - - - - - 27.7 1011.8 -
19/11:30am SE 15 16 - - - - - - - 27.7 1012.1 -
19/11:24am SE 14 - - - - - - - - 27.6 1012.1 -
19/11:00am SE 15 17 - - - - - - - 27.7 1012.4 -
19/10:30am SE 15 17 - - - - - - - 27.7 1012.5 -
19/10:24am SE 15 - - - - - - - - 27.7 1012.5 -
19/10:00am ESE 14 16 - - - - - - - 27.4 1012.8 -
19/09:30am SE 14 17 - - - - - - - 27.6 1012.9 -
19/09:24am SE 15 - - - - - - - - 27.8 1012.8 -
19/09:00am ESE 15 17 - - - - - - - 28.0 1013.0 -
19/08:30am SE 17 19 - - - - - - - 27.7 1013.0 -
19/08:24am SE 17 - - - - - - - - 27.5 1012.9 -
19/08:00am ESE 16 18 - - - - - - - 27.7 1013.0 -
19/07:30am ESE 17 19 - - - - - - - 27.5 1012.8 -
19/07:24am ESE 17 - - - - - - - - 27.5 1012.6 -
19/07:00am ESE 15 18 - - - - - - - 27.8 1012.6 -
19/06:30am ESE 16 18 - - - - - - - 27.2 1012.3 -
19/06:24am ESE 16 - - - - - - - - 27.4 1012.1 -
19/06:00am ESE 16 19 - - - - - - - 27.3 1011.6 -
19/05:30am ESE 17 19 - - - - - - - 27.3 1011.0 -
19/05:24am ESE 16 - - - - - - - - 27.0 1010.7 -
19/05:00am ESE 16 17 - - - - - - - 27.1 1010.6 -
19/04:30am ESE 16 18 - - - - - - - 27.3 1010.3 -
19/04:24am ESE 16 - - - - - - - - 27.0 1010.1 -
19/04:00am ESE 16 19 - - - - - - - 27.2 1010.3 -
19/03:30am ESE 17 19 - - - - - - - 27.0 1010.2 -
19/03:24am ESE 17 - - - - - - - - 27.1 1010.2 -
19/03:00am ESE 17 19 - - - - - - - 27.3 1010.3 -
19/02:30am ESE 18 20 - - - - - - - 27.3 1010.3 -
19/02:24am ESE 18 - - - - - - - - 27.1 1010.3 -
19/02:00am ESE 17 20 - - - - - - - 27.0 1010.5 -
19/01:30am ESE 17 20 - - - - - - - 27.2 1010.8 -
19/01:24am ESE 17 - - - - - - - - 27.2 1010.8 -
19/01:00am ESE 18 20 - - - - - - - 27.3 1011.1 -
19/12:30am ESE 18 21 - - - - - - - 27.1 1011.3 -
19/12:24am ESE 19 - - - - - - - - 27.2 1011.3 -
19/12:00am ESE 20 22 - - - - - - - 27.3 1011.6 -
 
Date/Time
EST
Wind Sea
Height
m
Swell Vis
km
Cloud Weather Temp
°C
Press
hPa
Rain since
9am
mm
Dir  Spd
kts
Gust
kts
Height
m
Period
s
Dir
18/11:30pm ESE 19 22 - - - - - - - 27.4 1011.8 -
18/11:24pm ESE 19 - - - - - - - - 27.4 1011.8 -
18/11:00pm ESE 20 23 - - - - - - - 27.4 1012.3 -
18/10:30pm ESE 19 22 - - - - - - - 27.5 1012.4 -
18/10:24pm ESE 19 - - - - - - - - 27.4 1012.3 -
18/10:00pm ESE 20 23 - - - - - - - 27.4 1012.5 -
18/09:30pm ESE 19 22 - - - - - - - 27.3 1012.3 -
18/09:24pm ESE 19 - - - - - - - - 27.3 1012.1 -
18/09:00pm SE 19 22 - - - - - - - 27.4 1012.0 -
18/08:30pm ESE 19 22 - - - - - - - 27.7 1011.7 -
18/08:24pm ESE 18 - - - - - - - - 27.8 1011.7 -
18/08:00pm ESE 19 22 - - - - - - - 27.7 1011.7 -
18/07:30pm ESE 18 22 - - - - - - - 27.8 1011.6 -
18/07:24pm ESE 17 - - - - - - - - 27.8 1011.6 -
18/07:00pm ESE 18 21 - - - - - - - 28.1 1011.4 -
18/06:30pm ESE 18 21 - - - - - - - 28.0 1010.9 -
18/06:24pm ESE 18 - - - - - - - - 27.9 1010.8 -
18/06:00pm ESE 19 23 - - - - - - - 28.0 1010.5 -
18/05:30pm ESE 20 23 - - - - - - - 28.0 1010.0 -
18/05:24pm ESE 19 - - - - - - - - 27.9 1009.8 -
18/05:00pm ESE 19 21 - - - - - - - 28.0 1009.6 -
18/04:30pm ESE 19 21 - - - - - - - 28.0 1009.7 -
18/04:24pm ESE 19 - - - - - - - - 28.1 1009.5 -
18/04:00pm ESE 19 21 - - - - - - - 28.0 1009.4 -
18/03:30pm ESE 18 21 - - - - - - - 28.3 1009.4 -
18/03:24pm ESE 17 - - - - - - - - 28.1 1009.4 -
18/03:00pm ESE 19 21 - - - - - - - 28.0 1009.6 -
18/02:30pm ESE 17 19 - - - - - - - 27.9 1009.9 -
18/02:24pm ESE 17 - - - - - - - - 27.9 1009.8 -
18/02:00pm ESE 17 20 - - - - - - - 27.9 1010.1 -
18/01:30pm E 16 18 - - - - - - - 28.0 1010.4 -
18/01:24pm E 16 - - - - - - - - 27.7 1010.4 -
18/01:00pm ESE 16 18 - - - - - - - 28.1 1010.6 -
18/12:30pm ESE 16 19 - - - - - - - 27.8 1010.6 -
18/12:24pm ESE 17 - - - - - - - - 27.8 1010.6 -
18/12:00pm ESE 16 18 - - - - - - - 28.1 1010.8 -
18/11:30am ESE 17 19 - - - - - - - 27.8 1010.7 -
18/11:24am ESE 17 - - - - - - - - 27.8 1010.6 -
18/11:00am ESE 17 20 - - - - - - - 27.6 1010.6 -
18/10:30am ESE 17 20 - - - - - - - 27.8 1010.9 -
18/10:24am ESE 17 - - - - - - - - 27.7 1010.8 -
18/10:00am ESE 18 21 - - - - - - - 27.7 1011.0 -
18/09:30am ESE 19 21 - - - - - - - 28.0 1011.0 -
18/09:24am ESE 19 - - - - - - - - 27.9 1010.8 -
18/09:00am ESE 19 22 - - - - - - - 27.9 1011.0 -
18/08:30am ESE 17 20 - - - - - - - 27.8 1010.9 -
18/08:24am ESE 17 - - - - - - - - 27.9 1010.8 -
18/08:00am E 20 24 - - - - - - - 27.3 1010.8 -
18/07:30am E 20 23 - - - - - - - 27.3 1010.6 -
18/07:24am E 19 - - - - - - - - 27.4 1010.4 -
18/07:00am E 19 21 - - - - - - - 27.5 1010.2 -
18/06:30am ESE 21 25 - - - - - - - 27.5 1009.8 -
18/06:24am ESE 20 - - - - - - - - 27.4 1009.6 -
18/06:00am ESE 20 22 - - - - - - - 27.4 1009.5 -
18/05:30am ESE 20 24 - - - - - - - 27.4 1009.0 -
18/05:24am ESE 20 - - - - - - - - 27.3 1008.7 -
18/05:00am E 20 23 - - - - - - - 27.4 1008.6 -
18/04:30am E 20 23 - - - - - - - 27.4 1008.1 -
18/04:24am E 20 - - - - - - - - 27.3 1007.9 -
18/04:00am E 20 23 - - - - - - - 27.4 1007.9 -
18/03:30am E 19 23 - - - - - - - 27.5 1007.9 -
18/03:24am E 20 - - - - - - - - 27.5 1007.8 -
18/03:00am ESE 20 24 - - - - - - - 27.3 1008.1 -
18/02:30am E 19 22 - - - - - - - 27.3 1008.4 -
18/02:24am E 19 - - - - - - - - 27.3 1008.3 -
18/02:00am ESE 19 23 - - - - - - - 26.9 1008.6 -
18/01:30am ESE 18 21 - - - - - - - 27.4 1008.8 -
18/01:24am ESE 18 - - - - - - - - 27.4 1008.8 -
18/01:00am ESE 19 22 - - - - - - - 27.3 1009.3 -
18/12:30am E 20 22 - - - - - - - 27.6 1009.7 -
18/12:24am E 19 - - - - - - - - 27.5 1009.6 -
18/12:00am ESE 19 22 - - - - - - - 27.7 1009.9 -
 
Date/Time
EST
Wind Sea
Height
m
Swell Vis
km
Cloud Weather Temp
°C
Press
hPa
Rain since
9am
mm
Dir  Spd
kts
Gust
kts
Height
m
Period
s
Dir
17/11:30pm ESE 19 21 - - - - - - - 27.5 1010.1 -
17/11:24pm ESE 19 - - - - - - - - 27.6 1010.0 -
17/11:00pm ESE 19 22 - - - - - - - 27.5 1010.2 -
17/10:30pm ESE 20 23 - - - - - - - 27.6 1010.4 -
17/10:24pm ESE 20 - - - - - - - - 27.6 1010.4 -
17/10:00pm ESE 19 21 - - - - - - - 27.7 1010.6 -
17/09:30pm ESE 20 23 - - - - - - - 27.6 1010.5 -
17/09:24pm ESE 19 - - - - - - - - 27.6 1010.4 -
17/09:00pm SE 21 23 - - - - - - - 27.6 1010.2 -
17/08:30pm SE 19 21 - - - - - - - 27.5 1010.0 -
17/08:24pm SE 19 - - - - - - - - 27.5 1009.8 -
17/08:00pm SE 18 23 - - - - - - - 27.1 1009.6 -
17/07:30pm SE 19 21 - - - - - - - 27.5 1009.3 -
17/07:24pm SE 18 - - - - - - - - 27.7 1009.2 -
17/07:00pm ESE 18 21 - - - - - - - 27.7 1009.2 -
17/06:30pm SE 20 22 - - - - - - - 27.6 1008.8 -
17/06:24pm SE 19 - - - - - - - - 27.6 1008.5 -
17/06:00pm SE 19 21 - - - - - - - 27.5 1008.3 -
17/05:30pm SE 17 19 - - - - - - - 27.6 1008.0 -
17/05:24pm SE 17 - - - - - - - - 27.9 1007.9 -
17/05:00pm SE 17 20 - - - - - - - 27.4 1007.8 -
17/04:30pm SE 17 19 - - - - - - - 27.4 1007.5 -
17/04:24pm SE 16 - - - - - - - - 27.6 1007.5 -
17/04:00pm SSE 17 19 - - - - - - - 27.6 1007.6 -
17/03:30pm SE 16 18 - - - - - - - 27.7 1007.9 -
17/03:24pm SSE 16 - - - - - - - - 27.6 1007.9 -
17/03:00pm SE 15 18 - - - - - - - 27.6 1008.2 -
17/02:30pm SE 15 17 - - - - - - - 27.7 1008.5 -
17/02:24pm SE 15 - - - - - - - - 27.6 1008.4 -
17/02:00pm SE 15 18 - - - - - - - 27.3 1008.7 -
17/01:30pm SE 14 16 - - - - - - - 27.5 1008.9 -
17/01:24pm SE 14 - - - - - - - - 27.4 1009.0 -
17/01:00pm SE 14 17 - - - - - - - 27.6 1009.6 -
17/12:30pm SE 14 16 - - - - - - - 27.6 1010.0 -
17/12:24pm SE 14 - - - - - - - - 27.3 1010.0 -
17/12:00pm SE 15 17 - - - - - - - 27.4 1010.1 -
17/11:30am SE 15 18 - - - - - - - 27.4 1010.2 -
17/11:24am SE 15 - - - - - - - - 27.3 1010.2 -
17/11:00am SE 16 18 - - - - - - - 27.2 1010.6 -
17/10:30am ESE 14 16 - - - - - - - 27.2 1010.9 -
17/10:24am ESE 14 - - - - - - - - 27.2 1010.7 -
17/10:00am ESE 15 17 - - - - - - - 27.4 1010.7 -
17/09:30am ESE 14 17 - - - - - - - 27.1 1010.7 -
17/09:24am ESE 15 - - - - - - - - 27.3 1010.6 -
17/09:00am SE 16 17 - - - - - - - 27.3 1010.8 -
17/08:30am SE 16 18 - - - - - - - 27.2 1010.7 -
17/08:24am SE 16 - - - - - - - - 27.1 1010.6 -
17/08:00am ESE 17 19 - - - - - - - 27.4 1010.8 -
17/07:30am SE 18 21 - - - - - - - 26.9 1010.5 -
17/07:24am SE 18 - - - - - - - - 27.2 1010.4 -
17/07:00am SE 17 20 - - - - - - - 27.0 1010.3 -
17/06:30am SE 17 20 - - - - - - - 26.9 1010.2 -
17/06:24am SE 17 - - - - - - - - 27.1 1010.0 -
17/06:00am SE 17 20 - - - - - - - 27.0 1009.7 -
17/05:30am ESE 16 18 - - - - - - - 26.9 1009.2 -
17/05:24am ESE 16 - - - - - - - - 26.7 1009.0 -
17/05:00am ESE 16 18 - - - - - - - 26.9 1008.9 -
17/04:30am ESE 15 17 - - - - - - - 26.8 1008.7 -
17/04:24am ESE 15 - - - - - - - - 26.7 1008.5 -
17/04:00am ESE 14 18 - - - - - - - 26.7 1008.4 -
17/03:30am ESE 15 18 - - - - - - - 26.5 1008.5 -
17/03:24am ESE 15 - - - - - - - - 26.8 1008.4 -
17/03:00am ESE 16 19 - - - - - - - 27.1 1008.7 -
17/02:30am E 17 20 - - - - - - - 26.8 1008.8 -
17/02:24am E 17 - - - - - - - - 27.0 1008.8 -
17/02:00am ESE 17 20 - - - - - - - 27.2 1009.1 -
17/01:30am ESE 13 15 - - - - - - - 27.2 1009.5 -
17/01:24am ESE 13 - - - - - - - - 27.0 1009.4 -
17/01:00am ESE 13 16 - - - - - - - 27.3 1009.8 -
17/12:30am ESE 14 17 - - - - - - - 27.1 1010.0 -
17/12:24am ESE 15 - - - - - - - - 26.9 1010.0 -
17/12:00am ESE 16 18 - - - - - - - 27.0 1010.3 -
 
Date/Time
EST
Wind Sea
Height
m
Swell Vis
km
Cloud Weather Temp
°C
Press
hPa
Rain since
9am
mm
Dir  Spd
kts
Gust
kts
Height
m
Period
s
Dir
16/11:30pm ESE 17 19 - - - - - - - 27.1 1010.5 -
16/11:24pm E 17 - - - - - - - - 27.1 1010.5 -
16/11:00pm ESE 18 20 - - - - - - - 27.1 1010.6 -
16/10:30pm ESE 18 21 - - - - - - - 27.1 1010.7 -
16/10:24pm ESE 18 - - - - - - - - 27.3 1010.5 -
16/10:00pm ESE 18 20 - - - - - - - 27.4 1010.7 -
16/09:30pm ESE 18 21 - - - - - - - 27.2 1010.5 -
16/09:24pm ESE 17 - - - - - - - - 27.1 1010.3 -
16/09:00pm ESE 17 19 - - - - - - - 27.2 1010.4 -
16/08:30pm ESE 17 19 - - - - - - - 27.3 1010.2 -
16/08:24pm ESE 17 - - - - - - - - 27.2 1010.1 -
16/08:00pm ESE 18 21 - - - - - - - 27.3 1010.3 -
16/07:30pm ESE 18 20 - - - - - - - 27.4 1010.0 -
16/07:24pm ESE 18 - - - - - - - - 27.4 1009.8 -
16/07:00pm SE 17 19 - - - - - - - 27.3 1009.8 -
16/06:30pm SE 17 19 - - - - - - - 27.5 1009.3 -
16/06:24pm SE 17 - - - - - - - - 27.4 1009.1 -
16/06:00pm SE 16 18 - - - - - - - 27.4 1008.9 -
16/05:30pm SE 17 19 - - - - - - - 27.5 1008.7 -
16/05:24pm SSE 16 - - - - - - - - 27.3 1008.5 -
16/05:00pm SE 17 20 - - - - - - - 27.4 1008.3 -
16/04:30pm SE 17 19 - - - - - - - 27.7 1008.4 -
16/04:24pm SE 17 - - - - - - - - 27.4 1008.3 -
16/04:00pm SE 16 19 - - - - - - - 27.5 1008.3 -
16/03:30pm SE 17 19 - - - - - - - 27.5 1008.3 -
16/03:24pm SE 17 - - - - - - - - 27.1 1008.2 -
16/03:00pm SE 17 19 - - - - - - - 27.5 1008.5 -
16/02:30pm SE 16 19 - - - - - - - 27.4 1008.7 -
16/02:24pm SE 16 - - - - - - - - 27.6 1008.7 -

Other Formats:

Comma delimited format used in spreadsheet applications
http://www.bom.gov.au/fwo/IDQ60701/IDQ60701.94290.axf

JavaScript Object Notation format (JSON) in row-major order
http://www.bom.gov.au/fwo/IDQ60701/IDQ60701.94290.json